Regional Weather Roundup
Issued by NWS Little Rock, AR

Home | Current Version | Previous Version | Text Only | Print | Product List | Glossary Off
Versions: 1 2 3 4 5 6 7 8 9 10 11 12 13 14 15 16 17 18 19 20 21 22 23 24 25 26 27 28 29 30 31 32 33 34 35 36 37 38 39 40 41 42 43 44 45 46 47 48 49 50

000
ASUS44 KLZK 191905
RWRLZK

WEATHER ROUNDUP FOR ARKANSAS
NATIONAL WEATHER SERVICE LITTLE ROCK AR
200 PM CDT TUE AUG 19 2014

NOTE: "FAIR" INDICATES FEW OR NO CLOUDS BELOW 12,000 FEET WITH NO
SIGNIFICANT WEATHER AND/OR OBSTRUCTIONS TO VISIBILITY.

ARZ001-003-010-029-192000-
NORTHWEST ARKANSAS

CITY           SKY/WX    TMP DP  RH WIND       PRES   REMARKS
FAYETTEVILLE   SUNNY     91  67  44 W9        29.92F HX  94
FORT SMITH     SUNNY     94  73  50 SW8       29.88F HX 103
HARRISON       MOSUNNY   90  68  48 CALM      29.92F HX  94
BENTONVILLE    SUNNY     91  66  43 W8        29.94S HX  94
ROGERS         SUNNY     91  66  43 SW14      29.93S HX  93
SILOAM SPGS    SUNNY     90  68  48 W9        29.93S HX  93
HIGHFILL       SUNNY     90  66  45 W8        29.92S HX  92
SPRINGDALE     MOSUNNY   91  68  46 W9        29.94S HX  95
$$

ARZ004-005-016-192000-
NORTH CENTRAL ARKANSAS

CITY           SKY/WX    TMP DP  RH WIND       PRES   REMARKS
BATESVILLE     SUNNY     97  66  36 CALM      29.86F HX 100
FLIPPIN          N/A     93  64  38 W3        29.88F HX  95
MTN HOME       MOSUNNY   95  63  34 W7        29.88F HX  96
$$

ARZ040-041-192000-
WEST CENTRAL ARKANSAS

CITY           SKY/WX    TMP DP  RH WIND       PRES   REMARKS
MENA           SUNNY     93  75  55 W3        29.94F HX 104
MOUNT IDA      SUNNY     92  75  57 CALM      29.90F HX 103
$$

ARZ009-017-025-026-028-192000-
NORTHEAST ARKANSAS

CITY           SKY/WX    TMP DP  RH WIND       PRES   REMARKS
CORNING        LGT RAIN  91  75  59 S10G16    29.84F HX 102
JONESBORO      PTSUNNY   89  73  59 SW13      29.86F HX  97
NEWPORT        MOSUNNY   91  74  57 SW9       29.88F HX 100
WALNUT RIDGE   MOSUNNY   90  73  58 S14       29.84F HX  98
BLYTHEVILLE    PTSUNNY   84  73  69 SW9       29.87F HX  90
$$

ARZ022-023-033-042-044-192000-
CENTRAL ARKANSAS

CITY           SKY/WX    TMP DP  RH WIND       PRES   REMARKS
LITTLE ROCK    MOSUNNY   92  75  57 SW8       29.90F HX 103
N LITTLE ROCK  MOSUNNY   92  78  62 S7        29.90F HX 106
JACKSONVILLE   SUNNY     91  78  63 S10       29.89F HX 105
SEARCY           N/A     91  74  57 CALM        N/A  HX 100
HOT SPRINGS    SUNNY     91  76  61 S5        29.92F HX 103
RUSSELLVILLE   SUNNY     91  74  57 SW8       29.89F HX 100
CLINTON        FAIR      97  73  46 S3        29.87F HX 107
$$

ARZ036-192000-
EAST ARKANSAS

CITY           SKY/WX    TMP DP  RH WIND       PRES   REMARKS
WEST MEMPHIS   MOSUNNY   88  73  61 SW6       29.88F HX  95
$$

ARZ050-053-066-070-073-192000-
SOUTHWEST ARKANSAS

CITY           SKY/WX    TMP DP  RH WIND       PRES   REMARKS
ARKADELPHIA    FAIR      92  79  65 S8        29.91F HX 108
CAMDEN         MOSUNNY   93  75  55 SW7       29.92F HX 104
TEXARKANA      MOSUNNY   92  75  57 SW6       29.92F HX 103
EL DORADO      MOSUNNY   89  77  67 VRB7      29.94F HX 101
DE QUEEN       SUNNY     89  77  67 SW7       29.89F HX 101
$$

ARZ056-057-069-192000-
SOUTHEAST ARKANSAS

CITY           SKY/WX    TMP DP  RH WIND       PRES   REMARKS
PINE BLUFF     SUNNY     91  75  59 SW9       29.92F HX 101
STUTTGART      SUNNY     91  77  62 S9        29.92F HX 105
MONTICELLO     MOSUNNY   91  77  63 SW7       29.93F HX 104

$$




USA.gov is the U.S. government's official web portal to all federal, state and local government web resources and services.